Regional Weather Roundup
Issued by NWS

Home | Current Version | Previous Version | Graphics & Text | Print | Product List | Glossary On
Versions: 1 2 3 4 5 6 7 8 9 10 11 12 13 14 15 16 17 18 19 20 21 22 23 24 25 26 27 28 29 30 31 32 33 34 35 36 37 38 39 40 41 42 43 44 45 46 47 48 49 50
000
ASUS43 KBIS 141910
RWRND

NORTH DAKOTA REGIONAL WEATHER ROUNDUP
NATIONAL WEATHER SERVICE BISMARCK ND
100 PM CST THU DEC 14 2017

NOTE: "FAIR" INDICATES FEW OR NO CLOUDS BELOW 12,000 FEET WITH NO
SIGNIFICANT WEATHER AND/OR OBSTRUCTIONS TO VISIBILITY.


NDZ001>003-009>011-017-142000-
NORTHWEST NORTH DAKOTA

CITY           SKY/WX    TMP DP  RH WIND       PRES   REMARKS
WILLISTON      CLOUDY    36  25  64 W15       30.18F
MINOT          CLOUDY    33  26  75 W16       30.09F
MINOT AFB      CLOUDY    33  25  70 NW17      30.08F
$$

NDZ018>021-031>035-040>046-142000-
SOUTHWEST NORTH DAKOTA

CITY           SKY/WX    TMP DP  RH WIND       PRES   REMARKS
BISMARCK       CLOUDY    34  24  67 NW17G23   30.14S
DICKINSON      CLOUDY    32  25  75 NW22G28   30.14F WCI  19
GARRISON         N/A     33  26  75 NW22      30.11F
HETTINGER ARPT CLOUDY    34  22  61 NW21G26   30.18F
$$

NDZ004>008-012>016-024-026-027-054-142000-
NORTHEAST NORTH DAKOTA

CITY           SKY/WX    TMP DP  RH WIND       PRES   REMARKS
GRAND FORKS    CLOUDY    21  17  84 NW14      30.08S WCI   8
GRND FRKS AFB  FLURRIES  22  17  80 N9        30.08S WCI  12
DEVILS LAKE    FLURRIES  26  23  88 NW8       30.06F WCI  18
$$

NDZ022-023-025-028>030-036>039-047>053-142000-
SOUTHEAST NORTH DAKOTA

CITY           SKY/WX    TMP DP  RH WIND       PRES   REMARKS
FARGO          CLOUDY    24  19  81 N13       30.08R WCI  12
JAMESTOWN      CLOUDY    26  23  88 NW10      30.07F WCI  16
$$





USA.gov is the U.S. government's official web portal to all federal, state and local government web resources and services.